| time (UTC) | temp F | wind direction | speed knots | gust knots | rain 1hr in | rain 24hr in | rain mn in | humidity % | barometer mb |
| 20260505170617 | 78 | 270 | 1.7 | 5.2 | 0.00 | 0.00 | 0.00 | 45 | 1016.3 |
| 20260505165537 | 78 | 315 | 1.7 | 4.3 | 0.00 | 0.00 | 0.00 | 45 | 1016.3 |
| 20260505164537 | 77 | 293 | 1.7 | 5.2 | 0.00 | 0.00 | 0.00 | 51 | 1016.5 |
| 20260505163517 | 77 | 23 | 1.7 | 7.8 | 0.00 | 0.00 | 0.00 | 49 | 1016.6 |
| 20260505162517 | 77 | 315 | 0.9 | 4.3 | 0.00 | 0.00 | 0.00 | 49 | 1016.6 |
| 20260505161517 | 76 | 113 | 1.7 | 6.1 | 0.00 | 0.00 | 0.00 | 49 | 1016.7 |
| 20260505160537 | 76 | 293 | 0.9 | 6.1 | 0.00 | 0.00 | 0.00 | 50 | 1016.8 |
| 20260505151517 | 73 | 0.0 | 2.6 | 0.00 | 0.00 | 0.00 | 59 | 1017.0 | |
| 20260505150517 | 72 | 315 | 0.9 | 2.6 | 0.00 | 0.00 | 0.00 | 57 | 1017.1 |
| 20260505140537 | 68 | 315 | 0.9 | 5.2 | 0.00 | 0.00 | 0.00 | 68 | 1017.0 |
| 20260505124536 | 60 | 0.0 | 2.6 | 0.00 | 0.00 | 0.00 | 81 | 1016.8 | |
| 20260505123557 | 59 | 0.0 | 3.5 | 0.00 | 0.00 | 0.00 | 83 | 1016.7 | |
| 20260505122516 | 58 | 315 | 0.9 | 5.2 | 0.00 | 0.00 | 0.00 | 87 | 1016.7 |
| 20260505121536 | 55 | 0.0 | 3.5 | 0.00 | 0.00 | 0.00 | 92 | 1016.6 | |
| 20260505120516 | 52 | 0.0 | 1.7 | 0.00 | 0.00 | 0.00 | 96 | 1016.6 | |
| 20260505115516 | 50 | 0.0 | 0.0 | 0.00 | 0.00 | 0.00 | 95 | 1016.6 | |
| 20260505114516 | 49 | 0.0 | 0.0 | 0.00 | 0.00 | 0.00 | 95 | 1016.6 | |
| 20260505113516 | 48 | 0.0 | 0.0 | 0.00 | 0.00 | 0.00 | 95 | 1016.4 | |
| 20260505112616 | 47 | 0.0 | 0.0 | 0.00 | 0.00 | 0.00 | 94 | 1016.4 | |
| 20260505111516 | 46 | 0.0 | 0.0 | 0.00 | 0.00 | 0.00 | 94 | 1016.2 | |
| 20260505110516 | 46 | 0.0 | 1.7 | 0.00 | 0.00 | 0.00 | 93 | 1016.4 | |
| 20260505101556 | 46 | 0.0 | 0.0 | 0.00 | 0.00 | 0.00 | 91 | 1016.2 | |
| 20260505100536 | 46 | 0.0 | 0.0 | 0.00 | 0.00 | 0.00 | 91 | 1016.1 | |
| 20260505095556 | 46 | 0.0 | 0.0 | 0.00 | 0.00 | 0.00 | 90 | 1016.1 | |
| 20260505094556 | 47 | 0.0 | 0.0 | 0.00 | 0.00 | 0.00 | 90 | 1016.1 | |
| 20260505093516 | 47 | 0.0 | 0.0 | 0.00 | 0.00 | 0.00 | 89 | 1016.0 | |
| 20260505092536 | 48 | 0.0 | 0.0 | 0.00 | 0.00 | 0.00 | 90 | 1015.9 | |
| 20260505091616 | 48 | 0.0 | 0.0 | 0.00 | 0.00 | 0.00 | 88 | 1015.8 | |
| 20260505090637 | 49 | 0.0 | 0.0 | 0.00 | 0.00 | 0.00 | 88 | 1015.8 | |
| 20260505085516 | 49 | 0.0 | 0.0 | 0.00 | 0.00 | 0.00 | 88 | 1015.8 | |
| 20260505084536 | 49 | 0.0 | 0.0 | 0.00 | 0.00 | 0.00 | 88 | 1015.5 | |
| 20260505083516 | 50 | 0.0 | 0.0 | 0.00 | 0.00 | 0.00 | 86 | 1015.4 | |
| 20260505082516 | 50 | 0.0 | 0.0 | 0.00 | 0.00 | 0.00 | 85 | 1015.4 | |
| 20260505081516 | 51 | 0.0 | 0.0 | 0.00 | 0.00 | 0.00 | 84 | 1015.3 | |
| 20260505080556 | 52 | 0.0 | 0.0 | 0.00 | 0.00 | 0.00 | 82 | 1015.4 | |
| 20260505075536 | 53 | 0.0 | 0.0 | 0.00 | 0.00 | 0.00 | 80 | 1015.3 | |
| 20260505074556 | 54 | 0.0 | 0.0 | 0.00 | 0.00 | 0.00 | 79 | 1015.3 | |
| 20260505073536 | 55 | 0.0 | 0.0 | 0.00 | 0.00 | 0.00 | 77 | 1015.3 | |
| 20260505072516 | 56 | 0.0 | 0.9 | 0.00 | 0.00 | 0.00 | 76 | 1015.2 | |
| 20260505071516 | 56 | 0.0 | 0.9 | 0.00 | 0.00 | 0.00 | 75 | 1015.3 | |
| 20260505070516 | 56 | 0.0 | 0.9 | 0.00 | 0.00 | 0.00 | 75 | 1015.2 | |
| 20260505065516 | 57 | 0.0 | 0.0 | 0.00 | 0.00 | 0.00 | 74 | 1015.1 | |
| 20260505064516 | 56 | 0.0 | 0.9 | 0.00 | 0.00 | 0.00 | 75 | 1015.1 | |
| 20260505063516 | 55 | 0.0 | 2.6 | 0.00 | 0.00 | 0.00 | 76 | 1015.2 | |
| 20260505062516 | 54 | 0.0 | 0.9 | 0.00 | 0.00 | 0.00 | 78 | 1015.0 | |
| 20260505061556 | 53 | 0.0 | 0.0 | 0.00 | 0.00 | 0.00 | 78 | 1015.0 | |
| 20260505060556 | 52 | 0.0 | 0.0 | 0.00 | 0.00 | 0.00 | 79 | 1014.9 | |
| 20260505055556 | 51 | 0.0 | 0.0 | 0.00 | 0.00 | 0.00 | 79 | 1014.7 | |
| 20260505054518 | 51 | 0.0 | 0.0 | 0.00 | 0.00 | 0.00 | 79 | 1014.8 | |
| 20260505053538 | 51 | 0.0 | 0.0 | 0.00 | 0.00 | 0.00 | 78 | 1014.8 | |
| 20260505052516 | 52 | 0.0 | 0.0 | 0.00 | 0.00 | 0.00 | 77 | 1014.9 | |
| 20260505051518 | 52 | 0.0 | 0.0 | 0.00 | 0.00 | 0.00 | 76 | 1014.9 | |
| 20260505050636 | 52 | 0.0 | 0.0 | 0.00 | 0.00 | 0.00 | 77 | 1015.0 | |
| 20260505041517 | 52 | 0.0 | 0.0 | 0.00 | 0.00 | 0.00 | 73 | 1015.0 | |
| 20260505040517 | 52 | 0.0 | 0.0 | 0.00 | 0.00 | 0.00 | 73 | 1014.9 | |
| 20260505035516 | 53 | 0.0 | 0.0 | 0.00 | 0.00 | 0.00 | 72 | 1015.0 | |
| 20260505034536 | 53 | 0.0 | 0.0 | 0.00 | 0.00 | 0.00 | 71 | 1015.0 | |
| 20260505033516 | 54 | 0.0 | 0.0 | 0.00 | 0.00 | 0.00 | 69 | 1015.0 | |
| 20260505032516 | 55 | 0.0 | 0.0 | 0.00 | 0.00 | 0.00 | 69 | 1015.0 | |
| 20260505031516 | 56 | 0.0 | 0.0 | 0.00 | 0.00 | 0.00 | 67 | 1015.1 | |
| 20260505030536 | 57 | 0.0 | 0.0 | 0.00 | 0.00 | 0.00 | 64 | 1015.1 | |
| 20260505025536 | 58 | 0.0 | 0.0 | 0.00 | 0.00 | 0.00 | 63 | 1015.1 | |
| 20260505024536 | 59 | 0.0 | 0.0 | 0.00 | 0.00 | 0.00 | 62 | 1015.1 | |
| 20260505023616 | 58 | 0.0 | 0.0 | 0.00 | 0.00 | 0.00 | 63 | 1015.0 | |
| 20260505022516 | 58 | 0.0 | 0.0 | 0.00 | 0.00 | 0.00 | 63 | 1014.8 | |
| 20260505021516 | 58 | 0.0 | 0.0 | 0.00 | 0.00 | 0.00 | 65 | 1014.7 | |
| 20260505020516 | 57 | 0.0 | 0.9 | 0.00 | 0.00 | 0.00 | 65 | 1014.6 | |
| 20260505015616 | 56 | 0.0 | 0.0 | 0.00 | 0.00 | 0.00 | 70 | 1014.4 | |
| 20260505014516 | 56 | 0.0 | 0.0 | 0.00 | 0.00 | 0.00 | 70 | 1014.4 | |
| 20260505013516 | 57 | 0.0 | 0.0 | 0.00 | 0.00 | 0.00 | 69 | 1014.3 | |
| 20260505012516 | 57 | 0.0 | 0.0 | 0.00 | 0.00 | 0.00 | 68 | 1014.1 | |
| 20260505011516 | 58 | 0.0 | 0.0 | 0.00 | 0.00 | 0.00 | 66 | 1014.0 | |
| 20260505010516 | 59 | 0.0 | 0.0 | 0.00 | 0.00 | 0.00 | 64 | 1013.9 | |
| 20260505005618 | 60 | 0.0 | 0.0 | 0.00 | 0.00 | 0.00 | 61 | 1013.5 | |
| 20260505004543 | 62 | 0.0 | 0.0 | 0.00 | 0.00 | 0.00 | 61 | 1013.5 | |
| 20260505003517 | 63 | 0.0 | 0.0 | 0.00 | 0.00 | 0.00 | 59 | 1013.5 | |
| 20260505002538 | 65 | 0.0 | 0.0 | 0.00 | 0.00 | 0.00 | 54 | 1013.4 | |
| 20260505001517 | 67 | 0.0 | 0.0 | 0.00 | 0.00 | 0.00 | 50 | 1013.4 | |
| 20260505000538 | 69 | 0.0 | 0.0 | 0.00 | 0.00 | 0.00 | 48 | 1013.5 | |
| 20260504235558 | 70 | 0.0 | 0.0 | 0.00 | 0.00 | 0.00 | 45 | 1013.2 | |
| 20260504234618 | 72 | 0.0 | 0.0 | 0.00 | 0.00 | 0.00 | 44 | 1013.2 | |
| 20260504233558 | 73 | 0.0 | 2.6 | 0.00 | 0.00 | 0.00 | 41 | 1013.1 | |
| 20260504232618 | 74 | 0.0 | 1.7 | 0.00 | 0.00 | 0.00 | 40 | 1013.1 | |
| 20260504231517 | 75 | 0.0 | 0.9 | 0.00 | 0.00 | 0.00 | 41 | 1013.1 | |
| 20260504230537 | 77 | 0.0 | 3.5 | 0.00 | 0.00 | 0.00 | 38 | 1013.1 | |
| 20260504225517 | 78 | 293 | 1.7 | 7.0 | 0.00 | 0.00 | 0.00 | 37 | 1013.1 |
| 20260504224517 | 79 | 293 | 0.9 | 3.5 | 0.00 | 0.00 | 0.00 | 36 | 1013.2 |
| 20260504223537 | 79 | 270 | 0.9 | 5.2 | 0.00 | 0.00 | 0.00 | 36 | 1013.2 |
| 20260504222517 | 80 | 315 | 0.9 | 4.3 | 0.00 | 0.00 | 0.00 | 36 | 1013.4 |
| 20260504221517 | 80 | 315 | 1.7 | 5.2 | 0.00 | 0.00 | 0.00 | 36 | 1013.3 |
| 20260504220517 | 81 | 293 | 0.9 | 3.5 | 0.00 | 0.00 | 0.00 | 36 | 1013.3 |
| 20260504215537 | 80 | 113 | 0.9 | 3.5 | 0.00 | 0.00 | 0.00 | 35 | 1013.3 |
| 20260504214517 | 81 | 293 | 0.9 | 2.6 | 0.00 | 0.00 | 0.00 | 36 | 1013.5 |
| 20260504213517 | 82 | 315 | 0.9 | 3.5 | 0.00 | 0.00 | 0.00 | 36 | 1013.4 |
| 20260504212557 | 81 | 0.0 | 2.6 | 0.00 | 0.00 | 0.00 | 36 | 1013.4 | |
| 20260504211617 | 81 | 293 | 0.9 | 3.5 | 0.00 | 0.00 | 0.00 | 37 | 1013.3 |
| 20260504210517 | 82 | 270 | 0.9 | 2.6 | 0.00 | 0.00 | 0.00 | 35 | 1013.4 |
| 20260504205517 | 81 | 270 | 1.7 | 5.2 | 0.00 | 0.00 | 0.00 | 36 | 1013.5 |
| 20260504204517 | 81 | 270 | 0.9 | 4.3 | 0.00 | 0.00 | 0.00 | 37 | 1013.6 |
| 20260504203517 | 81 | 293 | 0.9 | 3.5 | 0.00 | 0.00 | 0.00 | 37 | 1013.6 |
| 20260504202537 | 81 | 113 | 0.9 | 6.1 | 0.00 | 0.00 | 0.00 | 39 | 1013.7 |
| 20260504201557 | 81 | 315 | 0.9 | 4.3 | 0.00 | 0.00 | 0.00 | 38 | 1013.8 |
| 20260504195557 | 80 | 315 | 1.7 | 5.2 | 0.00 | 0.00 | 0.00 | 39 | 1014.1 |
| 20260504194517 | 79 | 113 | 0.9 | 3.5 | 0.00 | 0.00 | 0.00 | 40 | 1014.2 |
| 20260504193517 | 79 | 45 | 1.7 | 6.1 | 0.00 | 0.00 | 0.00 | 42 | 1014.2 |
| 20260504192517 | 79 | 45 | 0.9 | 5.2 | 0.00 | 0.00 | 0.00 | 40 | 1014.3 |
| 20260504191537 | 79 | 248 | 0.9 | 2.6 | 0.00 | 0.00 | 0.00 | 39 | 1014.5 |
| 20260504190537 | 79 | 293 | 1.7 | 5.2 | 0.00 | 0.00 | 0.00 | 41 | 1014.7 |
| 20260504185517 | 78 | 23 | 0.9 | 4.3 | 0.00 | 0.00 | 0.00 | 42 | 1014.8 |
| 20260504184658 | 77 | 315 | 0.9 | 2.6 | 0.00 | 0.00 | 0.00 | 43 | 1014.9 |
| 20260504183637 | 77 | 113 | 0.9 | 4.3 | 0.00 | 0.00 | 0.00 | 44 | 1014.8 |
| 20260504182517 | 77 | 315 | 0.9 | 3.5 | 0.00 | 0.00 | 0.00 | 42 | 1014.9 |
| 20260504181517 | 76 | 315 | 0.9 | 2.6 | 0.00 | 0.00 | 0.00 | 45 | 1015.0 |
| 20260504180557 | 75 | 293 | 0.9 | 3.5 | 0.00 | 0.00 | 0.00 | 43 | 1015.1 |
| 20260504175517 | 76 | 315 | 1.7 | 6.1 | 0.00 | 0.00 | 0.00 | 47 | 1015.0 |
| 20260504174537 | 75 | 315 | 0.9 | 2.6 | 0.00 | 0.00 | 0.00 | 46 | 1015.2 |
| 20260504173517 | 75 | 90 | 0.9 | 5.2 | 0.00 | 0.00 | 0.00 | 45 | 1015.2 |
| 20260504172537 | 75 | 315 | 0.9 | 3.5 | 0.00 | 0.00 | 0.00 | 47 | 1015.4 |
| 20260504171517 | 74 | 45 | 0.9 | 4.3 | 0.00 | 0.00 | 0.00 | 44 | 1015.3 |